User: anonymous   Login
Location: Kailua
(21.4020°N, 157.7390°W)
Time: 23:13:23
(UTC-10:00)
Language:

Cosmos 2221 Rocket - Orbit

View from above orbital plane
View from above orbital plane
View from above satellite
View from above satellite

Ground track
Ground track

The orbit data is extracted from the following two-line orbital elements,

1 22237U 92080B   17230.96394282 +.00000063 +00000-0 +54721-5 0  9994
2 22237 082.5098 059.3269 0019822 004.8638 107.5606 14.78323344332625
Epoch (UTC): 18 August 2017 23:08:04
Eccentricity: 0.0019822
inclination: 82.5098°
perigee height: 621 km
apogee height: 648 km
right ascension of ascending node: 59.3269°
argument of perigee: 4.8638°
revolutions per day: 14.78323344
mean anomaly at epoch: 107.5606°
orbit number at epoch: 33262

The dashed part of the orbit path shows where the satellite is in the earth's shadow,  

DLR